MDT,Max TemperatureF,Mean TemperatureF,Min TemperatureF,Max Dew PointF,MeanDew PointF,Min DewpointF,Max Humidity, Mean Humidity, Min Humidity, Max Sea Level PressureIn, Mean Sea Level PressureIn, Min Sea Level PressureIn, Max VisibilityMiles, Mean VisibilityMiles, Min VisibilityMiles, Max Wind SpeedMPH, Mean Wind SpeedMPH, Max Gust SpeedMPH,PrecipitationIn, CloudCover, Events, WindDirDegrees
2013-9-1,87,73,60,61,54,49,90,65,29,30.28,30.03,29.88,10,9,2,20,7,26,0.47,4,Rain,49
2013-9-2,81,69,57,59,57,53,93,70,42,30.11,30.03,29.94,10,10,10,12,6,17,0.01,1,,200
2013-9-3,86,70,55,57,54,49,93,62,29,30.07,30.01,29.94,10,10,10,10,5,,0.00,0,,215
2013-9-4,88,71,55,53,47,39,84,48,19,30.09,30.05,30.00,10,10,10,14,5,17,0.00,0,,194
2013-9-5,87,70,53,48,42,35,80,41,16,30.13,30.08,30.03,10,10,10,13,6,22,0.00,0,,172
2013-9-6,88,70,52,47,40,34,74,38,15,30.12,30.03,29.96,10,10,10,15,7,23,0.00,0,,150
2013-9-7,88,70,54,47,43,40,66,41,21,30.04,29.98,29.91,10,10,10,18,7,28,0.00,0,,187
2013-9-8,86,70,54,47,44,41,72,44,20,29.98,29.89,29.80,10,10,10,21,7,29,0.00,0,,188
2013-9-9,84,70,55,49,45,40,72,46,24,29.87,29.82,29.75,10,10,10,21,8,33,0.00,0,,207
2013-9-10,75,64,55,55,52,46,84,69,44,30.24,29.99,29.85,10,10,10,8,4,16,0.00,4,,206
2013-9-11,64,62,59,61,59,57,100,91,86,30.30,30.21,30.05,10,7,1,18,8,25,0.49,8,Rain,180
2013-9-12,66,60,57,59,57,55,100,90,73,30.34,30.22,30.05,10,7,1,16,4,22,1.36,8,Rain,183
2013-9-13,68,60,55,59,56,53,100,89,68,30.25,30.08,29.93,10,9,2,24,9,37,0.47,7,Rain,207
2013-9-14,70,62,55,57,55,51,100,83,59,30.15,29.97,29.80,10,10,4,21,9,30,0.02,7,Rain,200
2013-9-15,72,62,54,55,53,51,94,81,51,30.32,30.05,29.92,10,10,8,16,5,,0.14,5,Rain,22
2013-9-16,71,61,53,56,54,52,100,84,63,30.35,30.21,30.02,10,10,10,16,4,22,0.00,7,Rain,188
2013-9-17,79,68,57,58,55,52,100,77,40,30.27,29.98,29.79,10,10,6,23,9,30,0.00,3,,194
2013-9-18,81,68,57,56,53,43,96,71,27,30.10,29.86,29.73,10,10,10,17,5,25,0.00,3,,207
2013-9-19,75,64,53,55,53,50,93,75,41,30.21,29.91,29.81,10,10,7,18,6,23,0.24,3,Rain,42
2013-9-20,68,58,53,54,52,48,94,82,56,30.25,30.10,29.98,10,10,10,18,9,24,0.00,7,,145
2013-9-21,79,66,53,57,52,47,100,74,34,30.20,29.95,29.76,10,10,9,18,5,23,0.00,3,,199
2013-9-22,78,62,48,54,49,37,100,76,24,30.00,29.74,29.53,10,8,0,29,8,46,0.50,3,Fog-Rain,223
2013-9-23,72,58,44,44,36,29,93,51,22,29.97,29.72,29.54,10,10,10,16,9,24,0.00,0,,301
2013-9-24,72,54,37,46,40,35,89,61,32,30.12,30.01,29.91,10,10,10,15,7,21,0.00,0,,176
2013-9-25,80,60,41,46,40,29,93,55,16,29.89,29.71,29.55,10,10,10,23,6,31,0.00,0,,226
2013-9-26,81,64,48,43,35,25,64,35,14,29.66,29.59,29.51,10,10,10,30,11,44,0.00,0,,211
2013-9-27,77,62,46,45,38,21,74,47,26,29.86,29.67,29.52,10,10,10,39,14,53,0.00,3,,237
2013-9-28,64,48,33,31,25,19,70,43,20,30.16,30.06,29.85,10,10,10,16,7,20,0.00,0,,230
2013-9-29,79,56,33,33,26,14,85,43,9,30.14,29.98,29.83,10,10,10,16,6,24,0.00,0,,29
2013-9-30,80,60,42,37,31,24,73,39,13,29.86,29.80,29.73,10,10,10,13,7,21,0.00,0,,139